Weather in Puksib

Russia / Perm Krai     59°46′36″N   55°01′03″E
temp.,
°C
wind,
m/s
gust,
m/s
humid.,
%
clouds,
%
prec.,
mm/h
press.,
hPa
HPBL,
m
3 august, tue
tue323:00+16w22968 1.2 101126
02:00+15sw1195100 0.0 101111
05:00+14ssw1195100 0.0 101111
08:00+18sse1293100 0.0 101291
11:00+23sse246698 0.0 1011599
14:00+26s334987 0.0 10111234
17:00+28s345148 0.0 10101327
20:00+25se387322 0.0 1008344
4 august, wed
wed423:00+20se311925 0.0 1009276
02:00+19sse25965 0.0 100992
05:00+17s311964 0.0 1008278
08:00+20wsw258187 0.0 1009319
11:00+25wsw24619 0.0 1010908
14:00+27wsw355223 0.0 10101666
17:00+23wnw3587100 1.2 1010257
20:00+21nnw2290100 1.3 100925
5 august, thu
thu523:00+18ene129774 2.8 100928
02:00+17nne2498100 1.8 100886
05:00+17nne2499100 4.6 1007110
08:00+18nne239797 0.4 1006310
11:00+17n4995100 0.5 1007483
14:00+16nw51095100 1.0 1008665
17:00+14nw61296100 1.8 1010778
20:00+14nw61496100 1.3 1012693
6 august, fri
fri623:00+12nnw51595100 1.5 1013589
02:00+12nw51493100 0.4 1013548
05:00+11nw4119099 0.4 1014464
08:00+11nw410810 0.0 1015423
11:00+16nw57584 0.0 1016934
14:00+19nw45484 0.0 10151548
17:00+20nw45441 0.0 10151769
20:00+15nw596226 0.0 1017692
7 august, sat
sat723:00+10nw2782100 0.0 1017171
02:00+10nw277999 0.0 1018223
05:00+7nw25968 0.0 1019111
08:00+11nnw36740 0.0 1019314
11:00+16nnw35510 0.0 10191352
14:00+19nnw35405 0.0 10191845
17:00+20nw353915 0.0 10182104
20:00+16wnw226458 0.0 101918